Time,TemperatureF,DewpointF,PressureIn,WindDirection,WindDirectionDegrees,WindSpeedMPH,WindSpeedGustMPH,Humidity,HourlyPrecipIn,Conditions,Clouds,dailyrainin,SoftwareType,DateUTC
2013-05-29 00:02:00,54.3,53.0,29.97,WNW,290,4.0,8.0,96,0.00,,,0.07,weatherlink.com 1.10,2013-05-29 07:02:00,
2013-05-29 00:17:00,54.1,53.0,29.98,WNW,290,6.0,8.0,95,0.00,,,0.00,weatherlink.com 1.10,2013-05-29 07:17:00,
2013-05-29 00:32:00,54.1,53.0,29.97,WNW,303,5.0,8.0,96,0.00,,,0.00,weatherlink.com 1.10,2013-05-29 07:32:00,
2013-05-29 00:47:00,54.3,53.0,29.98,WNW,285,6.0,9.0,95,0.00,,,0.00,weatherlink.com 1.10,2013-05-29 07:47:00,
2013-05-29 01:02:00,54.3,53.0,29.98,WNW,291,4.0,11.0,94,0.00,,,0.00,weatherlink.com 1.10,2013-05-29 08:02:00,
2013-05-29 01:17:00,54.3,52.0,29.97,WNW,294,4.0,8.0,93,0.00,,,0.00,weatherlink.com 1.10,2013-05-29 08:17:00,
2013-05-29 01:32:00,54.3,52.0,29.97,NW,309,1.0,9.0,93,0.00,,,0.00,weatherlink.com 1.10,2013-05-29 08:32:00,
2013-05-29 01:47:00,53.8,52.0,29.96,North,353,1.0,7.0,93,0.00,,,0.00,weatherlink.com 1.10,2013-05-29 08:47:00,
2013-05-29 02:02:00,53.9,52.0,29.96,NNE,18,0.0,6.0,93,0.00,,,0.00,weatherlink.com 1.10,2013-05-29 09:02:00,
2013-05-29 02:17:00,53.9,52.0,29.97,West,278,4.0,6.0,94,0.00,,,0.00,weatherlink.com 1.10,2013-05-29 09:17:00,
2013-05-29 02:32:00,54.3,52.0,29.97,WNW,301,9.0,18.0,93,0.00,,,0.00,weatherlink.com 1.10,2013-05-29 09:32:00,
2013-05-29 02:47:00,53.9,52.0,29.97,West,281,10.0,13.0,93,0.00,,,0.00,weatherlink.com 1.10,2013-05-29 09:47:00,
2013-05-29 03:02:00,54.0,52.0,29.96,West,281,5.0,11.0,93,0.00,,,0.00,weatherlink.com 1.10,2013-05-29 10:02:00,
2013-05-29 03:17:00,54.3,52.0,29.96,WNW,291,5.0,8.0,92,0.00,,,0.00,weatherlink.com 1.10,2013-05-29 10:17:00,
2013-05-29 03:32:00,54.5,52.0,29.96,West,278,9.0,10.0,90,0.00,,,0.00,weatherlink.com 1.10,2013-05-29 10:32:00,
2013-05-29 03:47:00,54.7,52.0,29.96,West,275,5.0,10.0,90,0.00,,,0.00,weatherlink.com 1.10,2013-05-29 10:47:00,
2013-05-29 04:02:00,54.8,52.0,29.95,NW,307,4.0,10.0,91,0.00,,,0.00,weatherlink.com 1.10,2013-05-29 11:02:00,
2013-05-29 04:17:00,54.7,52.0,29.95,WNW,294,7.0,9.0,90,0.00,,,0.00,weatherlink.com 1.10,2013-05-29 11:17:00,
2013-05-29 04:32:00,54.3,52.0,29.95,NW,312,2.0,9.0,91,0.00,,,0.00,weatherlink.com 1.10,2013-05-29 11:32:00,
2013-05-29 04:47:00,54.4,52.0,29.96,West,263,5.0,7.0,91,0.00,,,0.00,weatherlink.com 1.10,2013-05-29 11:47:00,
2013-05-29 05:02:00,54.1,52.0,29.95,West,281,2.0,5.0,92,0.00,,,0.00,weatherlink.com 1.10,2013-05-29 12:02:00,
2013-05-29 05:17:00,53.7,52.0,29.95,NNW,332,0.0,3.0,92,0.00,,,0.00,weatherlink.com 1.10,2013-05-29 12:17:00,
2013-05-29 05:32:00,53.5,52.0,29.95,NNW,343,0.0,0.0,93,0.00,,,0.00,weatherlink.com 1.10,2013-05-29 12:32:00,
2013-05-29 05:47:00,53.5,52.0,29.95,NE,34,1.0,1.0,94,0.00,,,0.00,weatherlink.com 1.10,2013-05-29 12:47:00,
2013-05-29 06:02:00,53.4,52.0,29.95,ENE,63,0.0,0.0,94,0.00,,,0.00,weatherlink.com 1.10,2013-05-29 13:02:00,
2013-05-29 06:17:00,53.7,52.0,29.95,ENE,64,0.0,0.0,95,0.00,,,0.00,weatherlink.com 1.10,2013-05-29 13:17:00,
2013-05-29 06:32:00,53.9,52.0,29.96,ENE,64,0.0,0.0,94,0.00,,,0.00,weatherlink.com 1.10,2013-05-29 13:32:00,
2013-05-29 06:47:00,54.2,53.0,29.97,ENE,63,0.0,0.0,94,0.00,,,0.00,weatherlink.com 1.10,2013-05-29 13:47:00,
2013-05-29 07:02:00,54.5,53.0,29.97,WNW,290,0.0,2.0,94,0.00,,,0.00,weatherlink.com 1.10,2013-05-29 14:02:00,
2013-05-29 07:17:00,55.0,53.0,29.98,WNW,292,2.0,3.0,94,0.00,,,0.00,weatherlink.com 1.10,2013-05-29 14:17:00,
2013-05-29 07:32:00,54.5,53.0,29.98,NW,304,0.0,2.0,95,0.00,,,0.00,weatherlink.com 1.10,2013-05-29 14:32:00,
2013-05-29 07:47:00,54.5,53.0,29.98,WNW,286,2.0,3.0,96,0.00,,,0.00,weatherlink.com 1.10,2013-05-29 14:47:00,
2013-05-29 08:02:00,54.5,54.0,29.98,NW,307,0.0,0.0,97,0.00,,,0.00,weatherlink.com 1.10,2013-05-29 15:02:00,
2013-05-29 08:17:00,54.6,54.0,29.99,WNW,283,0.0,2.0,97,0.00,,,0.00,weatherlink.com 1.10,2013-05-29 15:17:00,
2013-05-29 08:32:00,54.7,54.0,30.00,NW,319,1.0,2.0,97,0.00,,,0.00,weatherlink.com 1.10,2013-05-29 15:32:00,
2013-05-29 08:47:00,54.8,54.0,30.00,NW,316,1.0,4.0,97,0.00,,,0.00,weatherlink.com 1.10,2013-05-29 15:47:00,
2013-05-29 09:02:00,54.9,54.0,30.01,WNW,294,2.0,3.0,97,0.00,,,0.00,weatherlink.com 1.10,2013-05-29 16:02:00,
2013-05-29 09:17:00,55.3,55.0,30.01,WNW,288,1.0,4.0,97,0.00,,,0.00,weatherlink.com 1.10,2013-05-29 16:17:00,
2013-05-29 09:33:00,55.9,55.0,30.01,West,278,5.0,10.0,97,0.00,,,0.00,weatherlink.com 1.10,2013-05-29 16:33:00,
2013-05-29 09:48:00,56.5,56.0,30.00,West,259,7.0,10.0,97,0.00,,,0.00,weatherlink.com 1.10,2013-05-29 16:48:00,
2013-05-29 10:03:00,56.6,55.0,30.00,WSW,249,10.0,13.0,95,0.00,,,0.00,weatherlink.com 1.10,2013-05-29 17:03:00,
2013-05-29 10:18:00,56.7,55.0,30.00,NW,320,2.0,14.0,94,0.00,,,0.00,weatherlink.com 1.10,2013-05-29 17:18:00,
2013-05-29 10:33:00,56.7,55.0,29.99,West,281,11.0,16.0,95,0.00,,,0.00,weatherlink.com 1.10,2013-05-29 17:33:00,
2013-05-29 10:48:00,56.7,55.0,30.00,West,276,4.0,14.0,95,0.00,,,0.00,weatherlink.com 1.10,2013-05-29 17:48:00,
2013-05-29 11:03:00,57.6,55.0,30.00,West,272,12.0,15.0,92,0.00,,,0.00,weatherlink.com 1.10,2013-05-29 18:03:00,
2013-05-29 11:18:00,58.0,55.0,30.00,West,276,8.0,13.0,91,0.00,,,0.00,weatherlink.com 1.10,2013-05-29 18:18:00,
2013-05-29 11:33:00,58.5,56.0,30.00,WNW,289,14.0,18.0,91,0.00,,,0.00,weatherlink.com 1.10,2013-05-29 18:33:00,
2013-05-29 11:48:00,58.4,56.0,30.00,WNW,290,9.0,16.0,91,0.00,,,0.00,weatherlink.com 1.10,2013-05-29 18:48:00,
2013-05-29 12:03:00,59.6,57.0,30.00,WNW,293,8.0,14.0,90,0.00,,,0.00,weatherlink.com 1.10,2013-05-29 19:03:00,
2013-05-29 12:18:00,59.9,56.0,30.00,West,262,10.0,18.0,88,0.00,,,0.00,weatherlink.com 1.10,2013-05-29 19:18:00,
2013-05-29 12:33:00,59.8,57.0,30.00,WNW,285,12.0,17.0,89,0.00,,,0.00,weatherlink.com 1.10,2013-05-29 19:33:00,
2013-05-29 12:48:00,61.0,57.0,29.99,NW,305,7.0,18.0,86,0.00,,,0.00,weatherlink.com 1.10,2013-05-29 19:48:00,
2013-05-29 13:03:00,60.9,57.0,29.98,WNW,297,9.0,17.0,86,0.00,,,0.00,weatherlink.com 1.10,2013-05-29 20:03:00,
2013-05-29 13:18:00,60.5,56.0,29.98,NW,307,19.0,21.0,86,0.00,,,0.00,weatherlink.com 1.10,2013-05-29 20:18:00,
2013-05-29 13:33:00,61.2,57.0,29.98,NW,307,14.0,18.0,85,0.00,,,0.00,weatherlink.com 1.10,2013-05-29 20:33:00,
2013-05-29 13:48:00,61.6,57.0,29.98,NW,304,10.0,19.0,85,0.00,,,0.00,weatherlink.com 1.10,2013-05-29 20:48:00,
2013-05-29 14:03:00,61.7,57.0,29.98,WNW,303,11.0,20.0,84,0.00,,,0.00,weatherlink.com 1.10,2013-05-29 21:03:00,
2013-05-29 14:17:00,61.6,57.0,29.98,WNW,291,14.0,21.0,84,0.00,,,0.00,weatherlink.com 1.10,2013-05-29 21:17:00,
2013-05-29 14:33:00,60.6,56.0,29.98,WNW,290,12.0,19.0,84,0.00,,,0.00,weatherlink.com 1.10,2013-05-29 21:33:00,
2013-05-29 14:48:00,59.8,56.0,29.98,WNW,285,11.0,20.0,86,0.00,,,0.00,weatherlink.com 1.10,2013-05-29 21:48:00,
2013-05-29 15:03:00,59.7,55.0,29.98,WNW,288,14.0,23.0,84,0.00,,,0.00,weatherlink.com 1.10,2013-05-29 22:03:00,
2013-05-29 15:18:00,59.7,55.0,29.98,WNW,297,8.0,20.0,83,0.00,,,0.00,weatherlink.com 1.10,2013-05-29 22:18:00,
2013-05-29 15:33:00,60.2,54.0,29.98,WNW,294,12.0,29.0,81,0.00,,,0.00,weatherlink.com 1.10,2013-05-29 22:33:00,
2013-05-29 15:48:00,60.3,54.0,29.97,WNW,300,10.0,24.0,81,0.00,,,0.00,weatherlink.com 1.10,2013-05-29 22:48:00,
2013-05-29 16:03:00,59.3,54.0,29.97,WNW,285,11.0,24.0,81,0.00,,,0.00,weatherlink.com 1.10,2013-05-29 23:03:00,
2013-05-29 16:18:00,58.8,53.0,29.97,WNW,284,11.0,26.0,82,0.00,,,0.00,weatherlink.com 1.10,2013-05-29 23:18:00,
2013-05-29 16:33:00,58.7,53.0,29.97,West,278,13.0,24.0,82,0.00,,,0.00,weatherlink.com 1.10,2013-05-29 23:33:00,
2013-05-29 16:48:00,58.5,54.0,29.97,WNW,293,16.0,23.0,84,0.00,,,0.00,weatherlink.com 1.10,2013-05-29 23:48:00,
2013-05-29 17:03:00,58.4,53.0,29.97,WNW,283,9.0,23.0,82,0.00,,,0.00,weatherlink.com 1.10,2013-05-30 00:03:00,
2013-05-29 17:18:00,59.0,53.0,29.96,West,261,14.0,20.0,81,0.00,,,0.00,weatherlink.com 1.10,2013-05-30 00:18:00,
2013-05-29 17:33:00,59.8,54.0,29.96,WNW,291,14.0,20.0,80,0.00,,,0.00,weatherlink.com 1.10,2013-05-30 00:33:00,
2013-05-29 17:48:00,59.5,54.0,29.95,West,264,15.0,20.0,81,0.00,,,0.00,weatherlink.com 1.10,2013-05-30 00:48:00,
2013-05-29 18:03:00,59.5,53.0,29.95,WNW,301,11.0,19.0,80,0.00,,,0.00,weatherlink.com 1.10,2013-05-30 01:03:00,
2013-05-29 18:18:00,59.2,53.0,29.95,West,276,10.0,21.0,81,0.00,,,0.00,weatherlink.com 1.10,2013-05-30 01:18:00,
2013-05-29 18:33:00,58.7,53.0,29.95,NW,318,15.0,20.0,82,0.00,,,0.00,weatherlink.com 1.10,2013-05-30 01:33:00,
2013-05-29 18:48:00,57.9,53.0,29.95,WNW,300,18.0,24.0,83,0.00,,,0.00,weatherlink.com 1.10,2013-05-30 01:48:00,
2013-05-29 19:03:00,57.1,52.0,29.95,WNW,293,24.0,24.0,83,0.00,,,0.00,weatherlink.com 1.10,2013-05-30 02:03:00,
2013-05-29 19:18:00,56.7,52.0,29.95,WNW,294,12.0,21.0,84,0.00,,,0.00,weatherlink.com 1.10,2013-05-30 02:18:00,
2013-05-29 19:33:00,56.2,52.0,29.95,NW,312,11.0,22.0,84,0.00,,,0.00,weatherlink.com 1.10,2013-05-30 02:33:00,
2013-05-29 19:48:00,55.9,52.0,29.96,NW,319,15.0,22.0,85,0.00,,,0.00,weatherlink.com 1.10,2013-05-30 02:48:00,
2013-05-29 20:03:00,55.4,51.0,29.96,WNW,292,13.0,19.0,85,0.00,,,0.00,weatherlink.com 1.10,2013-05-30 03:03:00,
2013-05-29 20:19:00,54.3,51.0,29.95,WSW,256,14.0,23.0,87,0.00,,,0.00,weatherlink.com 1.10,2013-05-30 03:19:00,
2013-05-29 20:34:00,54.0,51.0,29.96,WNW,293,13.0,20.0,88,0.00,,,0.00,weatherlink.com 1.10,2013-05-30 03:34:00,
2013-05-29 20:49:00,54.0,51.0,29.96,WNW,288,6.0,14.0,88,0.00,,,0.00,weatherlink.com 1.10,2013-05-30 03:49:00,
2013-05-29 21:04:00,53.6,51.0,29.96,WNW,293,9.0,15.0,89,0.00,,,0.00,weatherlink.com 1.10,2013-05-30 04:04:00,
2013-05-29 21:34:00,53.1,50.0,29.97,NW,304,13.0,20.0,88,0.00,,,0.00,weatherlink.com 1.10,2013-05-30 04:34:00,
2013-05-29 21:49:00,53.0,50.0,29.98,WNW,292,14.0,18.0,89,0.00,,,0.00,weatherlink.com 1.10,2013-05-30 04:49:00,
2013-05-29 22:04:00,53.1,50.0,29.98,WNW,284,8.0,18.0,89,0.00,,,0.00,weatherlink.com 1.10,2013-05-30 05:04:00,
2013-05-29 22:19:00,52.9,50.0,29.97,NW,311,12.0,16.0,89,0.00,,,0.00,weatherlink.com 1.10,2013-05-30 05:19:00,
2013-05-29 22:34:00,52.9,50.0,29.98,WNW,291,6.0,16.0,89,0.00,,,0.00,weatherlink.com 1.10,2013-05-30 05:34:00,
2013-05-29 22:49:00,52.9,50.0,29.98,WNW,288,7.0,12.0,90,0.00,,,0.00,weatherlink.com 1.10,2013-05-30 05:49:00,
2013-05-29 23:04:00,52.8,50.0,29.98,WNW,296,8.0,14.0,90,0.00,,,0.00,weatherlink.com 1.10,2013-05-30 06:04:00,
2013-05-29 23:19:00,52.6,50.0,29.98,West,264,6.0,14.0,90,0.00,,,0.00,weatherlink.com 1.10,2013-05-30 06:19:00,
2013-05-29 23:34:00,52.2,50.0,29.99,WNW,295,5.0,14.0,91,0.00,,,0.00,weatherlink.com 1.10,2013-05-30 06:34:00,
2013-05-29 23:49:00,51.9,49.0,29.99,WNW,291,9.0,12.0,91,0.00,,,0.00,weatherlink.com 1.10,2013-05-30 06:49:00,